User: anonymous   Login
Location: Newark
(58.8333°N, 23.5833°E)
Time: 10:46:44
(UTC+00:00)
Language:

Transit 4A - Orbit

View from above orbital plane
View from above orbital plane
View from above satellite
View from above satellite

Ground track
Ground track

The orbit data is extracted from the following two-line orbital elements,

1   116U 61015A   19317.66780320 -.00000051 +00000-0 +19890-4 0  9992
2   116 066.8117 018.1587 0074049 165.8839 194.4334 13.91761757961655
Epoch (UTC): 13 November 2019 16:01:38
Eccentricity: 0.0074049
inclination: 66.8117°
perigee height: 868 km
apogee height: 976 km
right ascension of ascending node: 18.1587°
argument of perigee: 165.8839°
revolutions per day: 13.91761757
mean anomaly at epoch: 194.4334°
orbit number at epoch: 96165

The dashed part of the orbit path shows where the satellite is in the earth's shadow,  

DLR